Pittsburgh Allegheny Co., PA

10:02 PM EDT on April 25, 2018 (GMT -0400)
Allegheny County

Weather History for KAGC - August, 2013

Change the Weather History Date:

Thursday, August 29, 2013

  Actual Average Record
Temperature  
Mean Temperature 76 °F -  
Max Temperature 84 °F 81 °F 90 °F (2010)
Min Temperature 69 °F 59 °F 33 °F (1996)
Cooling Degree Days 10    
Growing Degree Days 26 (Base 50)    
Moisture  
Dew Point 68 °F    
Average Humidity 85    
Maximum Humidity 100    
Minimum Humidity 56    
Precipitation  
Precipitation 0.00 in - - ()
Sea Level Pressure  
Sea Level Pressure 29.99 in    
Wind  
Wind Speed 4 mph (North)    
Max Wind Speed 8 mph    
Max Gust Speed -    
Visibility 5 miles    
Events      
Averages and records for this station are not official NWS values.
T = Trace of Precipitation, MM = Missing Value Source: NWS Daily Summary

Daily Weather History Graph

Daily Weather History Graph

Search for Another Location

Airport or City:

Astronomy

Aug. 29, 2013 Rise Set
Actual Time 6:44 AM EDT 7:55 PM EDT
Civil Twilight 6:16 AM EDT 8:23 PM EDT
Nautical Twilight 5:42 AM EDT 8:57 PM EDT
Astronomical Twilight 5:07 AM EDT 9:32 PM EDT
Moon 12:34 AM EDT (8/29) 3:23 PM EDT (8/29)
Length of Visible Light 14h 07m
Length of Day
13h 11m
Last Quarter, 38% of the Moon is Illuminated
Aug 29
Last Quarter
Sep 5
New
Sep 12
First Quarter
Sep 19
Full
Sep 26
Last Quarter

Hourly Weather History & Observations

Time (EDT) Temp. Heat Index Dew Point Humidity Pressure Visibility Wind Dir Wind Speed Gust Speed Precip Events Conditions
12:05 AM 69.8 °F - 69.8 °F 100% 29.94 in 1.2 mi NNW 5.8 mph - N/A   Overcast
12:28 AM 69.8 °F - 69.8 °F 100% 29.94 in 1.0 mi NNW 8.1 mph - N/A   Overcast
12:43 AM 69.8 °F - 69.8 °F 100% 29.94 in 1.0 mi NNW 5.8 mph - N/A   Mostly Cloudy
12:53 AM 70.0 °F - 70.0 °F 100% 29.93 in 4.0 mi NNW 5.8 mph - N/A   Mostly Cloudy
1:00 AM 69.8 °F - 69.8 °F 100% 29.94 in 0.8 mi North 4.6 mph - N/A   Mist
1:10 AM 69.8 °F - 69.8 °F 100% 29.94 in 0.8 mi North 4.6 mph - N/A   Mist
1:15 AM 69.8 °F - 69.8 °F 100% 29.94 in 1.0 mi NNW 5.8 mph - N/A   Mist
1:23 AM 69.8 °F - 69.8 °F 100% 29.94 in 1.0 mi North 4.6 mph - N/A   Mostly Cloudy
1:53 AM 70.0 °F - 69.1 °F 97% 29.93 in 4.0 mi NNW 4.6 mph - N/A   Overcast
2:00 AM 69.8 °F - 69.8 °F 100% 29.94 in 1.2 mi NNW 4.6 mph - N/A   Overcast
2:53 AM 70.0 °F - 69.1 °F 97% 29.94 in 1.2 mi North 5.8 mph - N/A   Overcast
3:11 AM 69.8 °F - 69.8 °F 100% 29.95 in 0.8 mi North 4.6 mph - N/A   Overcast
3:23 AM 69.8 °F - 68.0 °F 94% 29.95 in 1.2 mi North 4.6 mph - N/A   Mostly Cloudy
3:53 AM 69.1 °F - 68.0 °F 96% 29.95 in 1.0 mi North 4.6 mph - N/A   Mostly Cloudy
4:11 AM 69.8 °F - 69.8 °F 100% 29.96 in 1.0 mi Calm Calm - N/A   Overcast
4:36 AM 69.8 °F - 68.0 °F 94% 29.97 in 0.8 mi North 3.5 mph - N/A   Overcast
4:53 AM 69.1 °F - 68.0 °F 96% 29.96 in 0.8 mi North 3.5 mph - N/A   Overcast
5:28 AM 69.8 °F - 68.0 °F 94% 29.98 in 1.0 mi Calm Calm - N/A   Overcast
5:53 AM 69.1 °F - 68.0 °F 96% 29.97 in 1.5 mi NNE 4.6 mph - N/A   Overcast
6:53 AM 69.1 °F - 68.0 °F 96% 30.00 in 0.8 mi Calm Calm - N/A   Overcast
7:37 AM 69.8 °F - 68.0 °F 94% 30.02 in 2.5 mi ENE 4.6 mph - N/A   Overcast
7:46 AM 69.8 °F - 68.0 °F 94% 30.03 in 3.0 mi ENE 4.6 mph - N/A   Overcast
7:53 AM 69.1 °F - 68.0 °F 96% 30.02 in 3.0 mi ENE 4.6 mph - N/A   Overcast
8:53 AM 70.0 °F - 68.0 °F 93% 30.03 in 3.0 mi Calm Calm - N/A   Mostly Cloudy
9:53 AM 72.0 °F - 68.0 °F 87% 30.04 in 6.0 mi NNE 3.5 mph - N/A   Overcast
10:30 AM 73.4 °F - 69.8 °F 88% 30.06 in 8.0 mi Variable 3.5 mph - N/A   Overcast
10:53 AM 73.0 °F - 68.0 °F 84% 30.05 in 10.0 mi Calm Calm - N/A   Overcast
11:53 AM 75.0 °F - 68.0 °F 79% 30.05 in 9.0 mi Calm Calm - N/A   Overcast
12:24 PM 77.0 °F - 68.0 °F 74% 30.06 in 10.0 mi Calm Calm - N/A   Mostly Cloudy
12:53 PM 78.1 °F - 68.0 °F 71% 30.05 in 10.0 mi Calm Calm - N/A   Mostly Cloudy
1:45 PM 80.6 °F 82.7 °F 66.2 °F 61% 30.05 in 10.0 mi Variable 3.5 mph - N/A   Mostly Cloudy
1:53 PM 80.1 °F 82.3 °F 66.9 °F 64% 30.04 in 10.0 mi Variable 3.5 mph - N/A   Scattered Clouds
2:53 PM 81.0 °F 82.7 °F 64.9 °F 58% 30.03 in 10.0 mi Calm Calm - N/A   Partly Cloudy
3:53 PM 82.9 °F 85.0 °F 66.0 °F 56% 30.02 in 10.0 mi NW 3.5 mph - N/A   Clear
4:53 PM 82.9 °F 85.0 °F 66.0 °F 56% 30.01 in 10.0 mi Calm Calm - N/A   Clear
5:53 PM 82.0 °F 84.1 °F 66.0 °F 58% 30.01 in 10.0 mi Variable 4.6 mph - N/A   Clear
6:53 PM 81.0 °F 82.7 °F 64.9 °F 58% 30.02 in 10.0 mi NE 3.5 mph - N/A   Clear
7:53 PM 79.0 °F - 66.0 °F 64% 30.02 in 10.0 mi Calm Calm - N/A   Clear
8:53 PM 77.0 °F - 64.9 °F 66% 30.03 in 10.0 mi NNE 3.5 mph - N/A   Clear
9:53 PM 75.9 °F - 64.9 °F 69% 30.04 in 10.0 mi Calm Calm - N/A   Clear
10:53 PM 75.9 °F - 64.9 °F 69% 30.04 in 10.0 mi ENE 3.5 mph - N/A   Clear
11:53 PM 73.9 °F - 66.9 °F 79% 30.03 in 8.0 mi Calm Calm - N/A   Clear